Location: Fort Worth, Tx
(32.7431°N, 97.3695°W)
Time: 04:52:14
(UTC-05:00)

Altair - Pass Details

Date: 05 October 2023
Orbit: 1501 x 1682 km, 47.2° (Epoch: 06 December)

Event Time Altitude Azimuth Distance (km) Brightness Sun altitude
Rises 10:58:19 0° 302° (WNW) 4,916 9.6 29.6°
Reaches altitude 10° 11:01:39 10° 297° (WNW) 3,936 9.2 30.3°
Maximum altitude 11:11:02 45° 229° (SW) 2,177 8.5 32.0°
Drops below altitude 10° 11:20:23 10° 161° (SSE) 3,906 10.5 33.6°
Sets 11:23:42 0° 155° (SSE) 4,875 10.9 34.2°
